Weather observations for the past three days for
Topeka, Forbes Field
| Date | Time (cdt) | Wind (mph) | Vis. (mi.) | Weather | Sky Cond. | Temperature (ºF) | Relative Humidity | Wind Chill (°F) | Heat Index (°F) | Pressure | Precipitation (in) | ||||||
|---|---|---|---|---|---|---|---|---|---|---|---|---|---|---|---|---|---|
| Air | Dwpt | 6 hour | altimeter (in) | sea level (mb) | 1 hr | 3 hr | 6 hr | ||||||||||
| Max. | Min. | ||||||||||||||||
| 07 | 16:53 | SW 12 G 22 | 10.00 | Fair | CLR | 70 | 42.1 | 37% | 29.84 | 1010.2 | |||||||
| 07 | 15:53 | SW 16 G 28 | 10.00 | Fair | CLR | 70 | 42.1 | 37% | 29.86 | 1010.9 | |||||||
| 07 | 14:53 | SW 20 G 26 | 10.00 | Fair | CLR | 68 | 44.1 | 42% | 29.9 | 1012.1 | |||||||
| 07 | 13:53 | SW 25 G 31 | 10.00 | A Few Clouds and Breezy | FEW055 | 66.9 | 44.1 | 44% | 29.92 | 1012.9 | |||||||
| 07 | 12:53 | SW 23 G 30 | 10.00 | A Few Clouds and Breezy | FEW049 | 64 | 43 | 64.9 | 43 | 46% | 29.94 | 1013.6 | |||||
| 07 | 11:53 | SW 24 G 32 | 10.00 | Partly Cloudy and Breezy | SCT047 | 62.1 | 43 | 50% | 29.97 | 1014.7 | |||||||
| 07 | 10:53 | W 17 G 29 | 10.00 | Fair | CLR | 59 | 43 | 56% | 29.99 | 1015.6 | |||||||
| 07 | 09:53 | SW 15 | 10.00 | Fair | CLR | 57.9 | 44.1 | 60% | 30.01 | 1016.2 | |||||||
| 07 | 08:53 | SW 15 | 10.00 | Fair | CLR | 54 | 43 | 67% | 30.02 | 1016.6 | |||||||
| 07 | 07:53 | SW 9 | 10.00 | Fair | CLR | 48 | 42.1 | 80% | 44 | 30.02 | 1016.6 | ||||||
| 07 | 06:53 | S 6 | 10.00 | Fair | CLR | 43 | 39.9 | 46 | 41 | 89% | 40 | 30.02 | 1016.7 | ||||
| 07 | 05:53 | SW 6 | 10.00 | Fair | CLR | 44.1 | 39 | 83% | 41 | 30.02 | 1016.6 | ||||||
| 07 | 04:53 | SW 8 | 10.00 | Fair | CLR | 44.1 | 39 | 83% | 40 | 30.03 | 1016.7 | ||||||
| 07 | 03:53 | SW 8 | 10.00 | Fair | CLR | 45 | 39 | 80% | 41 | 30.03 | 1017.0 | ||||||
| 07 | 02:53 | SW 8 | 10.00 | Fair | CLR | 45 | 39 | 80% | 41 | 30.04 | 1017.3 | ||||||
| 07 | 01:53 | SW 7 | 10.00 | Fair | CLR | 44.1 | 39 | 83% | 41 | 30.05 | 1017.7 | ||||||
| 07 | 00:53 | SW 6 | 10.00 | Fair | CLR | 46 | 39.9 | 59 | 46 | 79% | 44 | 30.06 | 1018.0 | ||||
| 06 | 23:53 | S 7 | 10.00 | Fair | CLR | 46.9 | 39 | 74% | 44 | 30.07 | 1018.2 | ||||||
| 06 | 22:53 | S 7 | 10.00 | Fair | CLR | 46.9 | 37 | 69% | 44 | 30.06 | 1018.1 | ||||||
| 06 | 21:53 | S 7 | 10.00 | Fair | CLR | 48 | 35.1 | 61% | 45 | 30.06 | 1018.1 | ||||||
| 06 | 08:53 | W 8 | 10.00 | Overcast | OVC | 50 | 37.4 | 62% | 47 | 30.1 | 0.0 | ||||||
| 06 | 07:53 | W 5 | 10.00 | Fair | CLR | 46.4 | 39.2 | 76% | 45 | 30.07 | 0.0 | ||||||
| 06 | 06:53 | Calm | 10.00 | Fair | CLR | 44.6 | 41 | 87% | 30.03 | 0.0 | |||||||
| 05 | 21:53 | NE 5 | 10.00 | Overcast | OVC085 | 52 | 37 | 57% | 29.94 | 1013.8 | |||||||
| 05 | 20:53 | N 6 | 10.00 | Overcast | OVC090 | 52 | 35.1 | 53% | 29.91 | 1012.8 | |||||||
| 05 | 19:53 | N 7 | 10.00 | Overcast | OVC085 | 54 | 36 | 51% | 29.89 | 1012.2 | |||||||
| 05 | 18:53 | N 8 | 10.00 | Overcast | OVC085 | 55 | 41 | 55 | 48 | 59% | 29.88 | 1011.7 | |||||
| 05 | 17:53 | N 8 | 10.00 | Overcast | OVC085 | 54 | 44.1 | 69% | 29.88 | 1011.5 | |||||||
| 05 | 16:53 | NW 7 | 10.00 | Overcast | OVC080 | 53.1 | 42.1 | 66% | 29.88 | 1011.7 | |||||||
| 05 | 15:53 | N 6 | 10.00 | Overcast | OVC070 | 52 | 42.1 | 69% | 29.89 | 1012.2 | |||||||
| 05 | 14:53 | N 3 | 10.00 | Overcast | OVC070 | 51.1 | 43 | 74% | 29.9 | 1012.5 | |||||||
| 05 | 13:53 | N 8 | 10.00 | Overcast | OVC065 | 51.1 | 44.1 | 77% | 29.91 | 1012.6 | |||||||
| 05 | 12:53 | E 7 | 10.00 | Light Rain | BKN060 OVC080 | 48 | 44.1 | 52 | 46.9 | 86% | 45 | 29.92 | 1013.1 | 0.04 | 0.18 | ||
| 05 | 11:53 | NE 6 | 2.50 | Heavy Rain Fog/Mist | SCT060 BKN075 OVC090 | 48 | 44.1 | 86% | 46 | 29.92 | 1012.8 | 0.06 | |||||
| 05 | 10:53 | NE 8 | 10.00 | Light Rain | FEW039 OVC085 | 48 | 44.1 | 86% | 45 | 29.91 | 1012.6 | ||||||
| 05 | 09:53 | NE 6 | 10.00 | Overcast | SCT080 OVC090 | 48 | 44.1 | 86% | 46 | 29.91 | 1012.5 | 0.02 | 0.08 | ||||
| 05 | 08:53 | NE 10 | 8.00 | Rain | FEW060 FEW070 OVC090 | 46.9 | 43 | 86% | 43 | 29.88 | 1011.6 | 0.01 | |||||
| 05 | 07:53 | N 7 | 8.00 | Rain | FEW055 BKN075 OVC090 | 48 | 43 | 83% | 45 | 29.87 | 1011.0 | 0.05 | |||||
| 05 | 06:53 | E 10 | 10.00 | Overcast | OVC090 | 52 | 37 | 62.1 | 51.1 | 57% | 29.79 | 1008.3 | 0.13 | ||||
| 05 | 05:53 | NE 10 | 10.00 | Thunderstorm in Vicinity | FEW065 OVC085 | 53.1 | 34 | 48% | 29.79 | 1008.1 | |||||||
| 05 | 04:53 | NE 12 G 20 | 10.00 | Overcast | BKN090 OVC110 | 54 | 35.1 | 49% | 29.79 | 1008.0 | |||||||
| 05 | 03:53 | N 13 G 21 | 10.00 | Fair | CLR | 54 | 37 | 53% | 29.78 | 1007.6 | 0.13 | ||||||
| 05 | 02:53 | N 8 | 10.00 | A Few Clouds | FEW120 | 53.1 | 41 | 64% | 29.74 | 1006.4 | 0.01 | ||||||
| 05 | 01:53 | Vrbl 5 | 6.00 | Rain | OVC080 | 52 | 45 | 77% | 29.78 | 1007.7 | 0.12 | ||||||
| 05 | 00:53 | N 17 G 26 | 10.00 | Light Rain | FEW055 OVC095 | 62.1 | 37.9 | 73 | 62.1 | 41% | 29.71 | 1005.0 | 0.01 | 0.02 | |||
| 04 | 23:53 | N 12 G 26 | 10.00 | Thunderstorm in Vicinity Light Rain | BKN050 BKN065 OVC110 | 64 | 45 | 50% | 29.68 | 1004.2 | 0.01 | ||||||
| 04 | 22:53 | N 17 G 26 | 10.00 | Mostly Cloudy | SCT050 BKN065 | 71.1 | 46.9 | 42% | 29.65 | 1003.2 | |||||||
| 04 | 21:53 | S 7 | 10.00 | Fair | CLR | 66.9 | 57.9 | 73% | 29.62 | 1002.2 | |||||||
| 04 | 20:53 | S 5 | 10.00 | Fair | CLR | 66.9 | 57 | 71% | 29.6 | 1001.6 | |||||||
| 04 | 19:53 | Calm | 10.00 | Fair | CLR | 73 | 61 | 66% | 29.58 | 1000.9 | |||||||
| 04 | 18:53 | Calm | 10.00 | Fair | CLR | 75.9 | 60.1 | 82 | 75.9 | 58% | 78 | 29.58 | 1001.1 | ||||
| 04 | 17:53 | S 7 | 10.00 | Fair | CLR | 78.1 | 55 | 45% | 79 | 29.58 | 1001.0 | ||||||
| Date | Time (cdt) | Wind (mph) | Vis. (mi.) | Weather | Sky Cond. | Air | Dwpt | Max. | Min. | Relative Humidity | Wind Chill (°F) | Heat Index (°F) | altimeter (in) | sea level (mb) | 1 hr | 3 hr | 6 hr |
| 6 hour | |||||||||||||||||
| Temperature (ºF) | Pressure | Precipitation (in) | |||||||||||||||